Regional Weather Roundup
Issued by NWS

Home | Current Version | Previous Version | Text Only | Print | Product List | Glossary Off
Versions: 1 2 3 4 5 6 7 8 9 10 11 12 13 14 15 16 17 18 19 20 21 22 23 24 25 26 27 28 29 30 31 32 33 34 35 36 37 38 39 40 41 42 43 44 45 46 47 48 49 50

000
ASUS43 KOAX 301602
RWRNE

WEATHER ROUNDUP FOR NEBRASKA
NATIONAL WEATHER SERVICE OMAHA NE
1100 AM CDT THU JUL 30 2015

NOTES: SATELLITE DATA IS BEING USED TO AUGMENT CLOUD COVER ABOVE
       12000 FEET.
       "FAIR" INDICATES FEW OR NO CLOUDS BELOW 12,000 FEET WITH NO
       SIGNIFICANT WEATHER AND/OR OBSTRUCTIONS TO VISIBILITY.

  * THESE STATIONS DO NOT REPORT WEATHER SUCH AS RAIN...SNOW OR FOG.

NEZ001>004-019>022-054>056-301700-
NEBRASKA PANHANDLE

CITY           SKY/WX    TMP DP  RH WIND       PRES   REMARKS
SCOTTSBLUFF    SUNNY     75  54  47 CALM      30.30F
ALLIANCE       SUNNY     77  54  44 NW3       30.29S
CHADRON        SUNNY     76  50  40 CALM      30.27F
KIMBALL        SUNNY     76  54  47 N6        30.33S
SIDNEY         SUNNY     78  59  51 W6        30.32S
$$

NEZ057>060-069>072-079>082-301700-
SOUTHWEST NEBRASKA

CITY           SKY/WX    TMP DP  RH WIND       PRES   REMARKS
NORTH PLATTE   SUNNY     79  64  60 VRB7      30.25F
IMPERIAL       SUNNY     79  63  57 S9        30.28S
LEXINGTON      SUNNY     79  67  66 SW12      30.26S
MCCOOK         PTSUNNY   77  64  64 SW9       30.27S
$$

NEZ005>010-023>029-035>040-094-301700-
NORTH CENTRAL NEBRASKA

CITY           SKY/WX    TMP DP  RH WIND       PRES   REMARKS
VALENTINE      MOSUNNY   81  52  36 W7        30.22F
AINSWORTH      PTSUNNY   79  57  46 W14       30.23S
BROKEN BOW     SUNNY     79  63  57 SW9       30.25S
O`NEILL        SUNNY     79  59  51 W12       30.23S
ORD            SUNNY     80  61  52 W9        30.23S
$$

NEZ041-046>049-061>064-073>077-083>087-301700-
SOUTH CENTRAL NEBRASKA

CITY           SKY/WX    TMP DP  RH WIND       PRES   REMARKS
GRAND ISLAND   SUNNY     82  55  39 SW16      30.24S
AURORA         SUNNY     79  61  53 SW13      30.22F
HASTINGS       SUNNY     80  59  48 S12       30.24F
KEARNEY *      SUNNY     79  59  50 S15       30.25S
$$

NEZ011>018-030>034-042>045-301700-
NORTHEAST NEBRASKA

CITY           SKY/WX    TMP DP  RH WIND       PRES   REMARKS
NORFOLK        SUNNY     80  63  55 W12       30.21S
BLAIR          SUNNY     76  63  62 SW5       30.22R
COLUMBUS *     SUNNY     79  61  53 W8        30.23R
FREMONT        SUNNY     78  62  57 W3        30.22R
TEKAMAH        SUNNY     80  66  62 W7        30.20R
$$

NEZ050>053-065>068-078-088>093-301700-
SOUTHEAST NEBRASKA

CITY           SKY/WX    TMP DP  RH WIND       PRES   REMARKS
LINCOLN        SUNNY     83  63  50 SW8       30.22S
OMAHA EPPLEY   MOSUNNY   82  60  47 CALM      30.20F
FALLS CITY     SUNNY     80  68  66 W6        30.22S
$$

NEZ044-045-051>053-067-301700-
OMAHA AREA

CITY           SKY/WX    TMP DP  RH WIND       PRES   REMARKS
OMAHA EPPLEY   MOSUNNY   82  60  47 CALM      30.20F
BLAIR          SUNNY     76  63  62 SW5       30.22R
FREMONT        SUNNY     78  62  57 W3        30.22R
OFFUTT AFB     SUNNY     80  64  57 SW6       30.20S
$$


USA.gov is the U.S. government's official web portal to all federal, state and local government web resources and services.